Location: Unspecified
(0.0000°N, 0.0000°E)
Time: 07:30:55
(UTC+00:00)

ISS - Pass Details

Date: 17 October 2019
Orbit: 411 x 421 km, 51.6° (Epoch: 15 October)

Event Time Altitude Azimuth Distance (km) Brightness Sun altitude
Rises 18:38:06 0° 294° (WNW) 2,326 1.0 -13.0°
Reaches altitude 10° 18:40:57 10° 267° (W) 1,470 0.4 -13.7°
Maximum altitude 18:42:44 14° 234° (SW) 1,262 -0.4 -14.1°
Drops below altitude 10° 18:44:31 10° 201° (SSW) 1,474 -0.6 -14.6°
Sets 18:47:23 0° 174° (S) 2,340 0.1 -15.3°
